Flag for Germany Weather past 2 weeks in Bensheim, Hesse, Germany

Now
79 °F

Sunny.


Feels Like: N/A
Forecast: 68 / 98 °F
Wind: 1 mph from North

Location: Baden Wurttemberg - Neuostheim

Current Time: Jul 4, 2015 at 7:50:48 AM

Latest Report: Jul 4, 2015 at 7:20 AM


Visibility: 10 mi

Pressure: 30.12 "Hg

Humidity: N/A

Dew point: N/A

Location of BensheimLocation

Historic Weather in Bensheim — Graph

°F

Bensheim temperature yesterday

Maximum temperature yesterday: 97 °F (at 3:50 PM)
Minimum temperature yesterday: 73 °F (at 5:50 AM)
Average temperature yesterday: 88 °F

Past Weeks' High & Low Weather Summary

 TemperatureHumidityPressure
High97 °F (Jul 2, 4:50 PM)100% (Jun 22, 5:50 AM)30.21 "Hg (Jun 22, 5:50 AM)
Low50 °F (Jun 23, 5:20 AM)24% (Jul 1, 2:50 PM)29.74 "Hg (Jun 22, 9:20 PM)
Average71 °F57%30.09 "Hg
* Reported Jun 19 6:20 AM — Jul 4 6:50 AM, Bensheim, Weather by CustomWeather, © 2015

Note: Actual official high and low records may vary slightly from our data, if they occured in-between our weather recording intervals... More about our weather records

Advertising

Bensheim weather history for previous 24 hours

 ConditionsComfort  
Time TempWeatherWind HumidityBarometerVisibility
6:50 AM
Sat, Jul 4
77 °FSunny.2 mph74%30.09 "Hg10 mi
6:20 AM75 °FClear.No wind74%30.12 "Hg10 mi
12:20 AM81 °FClear.2 mph58%30.12 "Hg10 mi
11:50 PM
Fri, Jul 3
82 °FClear.3 mph58%30.15 "Hg10 mi
11:20 PM82 °FClear.1 mph58%30.15 "Hg10 mi
10:50 PM84 °FClear.2 mph55%30.12 "Hg10 mi
10:20 PM86 °FSunny.2 mph49%30.12 "Hg10 mi
9:50 PM90 °FSunny.2 mph41%30.15 "Hg10 mi
9:20 PM91 °FSunny.5 mph36%30.12 "Hg10 mi
8:50 PM93 °FSunny.3 mph34%30.12 "Hg10 mi
8:20 PM95 °FPassing clouds.5 mph32%30.12 "HgN/A
7:50 PM97 °FPassing clouds.5 mph27%30.12 "HgN/A
7:20 PM97 °FPassing clouds.5 mph27%30.12 "HgN/A
6:50 PM97 °FSunny.5 mph25%30.12 "Hg10 mi
6:20 PM97 °FPassing clouds.5 mph25%30.15 "HgN/A
5:50 PM97 °FSunny.3 mph25%30.12 "Hg10 mi
5:20 PM97 °FSunny.3 mph25%30.15 "Hg10 mi
4:50 PM97 °FSunny.3 mph27%30.15 "Hg10 mi
4:20 PM97 °FPassing clouds.6 mph30%30.15 "HgN/A
3:50 PM97 °FSunny.3 mph27%30.18 "Hg10 mi
3:20 PM95 °FSunny.5 mph30%30.18 "Hg10 mi
2:50 PM93 °FSunny.3 mph34%30.18 "Hg10 mi
2:20 PM95 °FSunny.2 mph34%30.18 "Hg10 mi
1:50 PM93 °FSunny.3 mph41%30.18 "Hg10 mi
1:20 PM90 °FSunny.3 mph46%30.21 "Hg10 mi
12:50 PM90 °FSunny.3 mph46%30.21 "Hg10 mi
12:20 PM88 °FSunny.5 mph49%30.21 "Hg10 mi
11:50 AM86 °FPassing clouds.6 mph55%30.21 "HgN/A
11:20 AM86 °FPassing clouds.6 mph55%30.21 "HgN/A
10:50 AM84 °FPassing clouds.5 mph55%30.21 "HgN/A
10:20 AM82 °FPassing clouds.5 mph58%30.21 "HgN/A
9:50 AM82 °FPassing clouds.6 mph58%30.21 "HgN/A
9:20 AM81 °FPassing clouds.6 mph58%30.21 "HgN/A
8:50 AM79 °FSunny.6 mph61%30.21 "Hg10 mi
8:20 AM77 °FPassing clouds.6 mph65%30.21 "HgN/A
7:50 AM79 °FSunny.3 mph61%30.18 "Hg10 mi
7:20 AM79 °FSunny.2 mph61%30.18 "Hg10 mi
Weather by CustomWeather, © 2015

See weather overviewHow to use our weather pages